Home > Weather > Sankt Ingbert > Past weeks

Flag for Germany Weather for the Past 2 Weeks in Sankt Ingbert, Saarland, Germany

Now
37 °F

Scattered clouds.


Feels Like: 30 °F
Forecast: 34 / 41 °F
Wind: 10 mph from East

Location: Saarbruecken / Ensheim

Current Time: Feb 12, 2016 at 11:56:06 AM

Latest Report: Feb 12, 2016 at 11:20 AM


Visibility: N/A

Pressure: 29.53 "Hg

Humidity: 75%

Dew point: 30 °F

Location of Sankt IngbertLocation

Historic Weather in Sankt Ingbert — Graph

°F

Sankt Ingbert Temperature Yesterday

Maximum temperature yesterday: 37 °F (at 12:50 AM)
Minimum temperature yesterday: 34 °F (at 11:50 PM)
Average temperature yesterday: 36 °F

High & Low Weather Summary for the Past Weeks

 TemperatureHumidityPressure
High54 °F (Feb 1, 1:20 AM)100% (Jan 29, 8:50 AM)30.42 "Hg (Jan 29, 8:50 AM)
Low32 °F (Feb 12, 1:20 AM)57% (Jan 29, 4:20 PM)29.09 "Hg (Feb 9, 3:20 PM)
Average42 °F87%29.94 "Hg
* Reported Jan 28 10:20 AM — Feb 12 10:20 AM, Sankt Ingbert, Weather by CustomWeather, © 2016

Note: Actual official high and low records may vary slightly from our data, if they occured in-between our weather recording intervals... More about our weather records

Advertising

Sankt Ingbert Weather History for the Previous 24 Hours

 ConditionsComfort  
Time TempWeatherWind HumidityBarometerVisibility
10:20 AM
Fri, Feb 12
36 °FScattered clouds.7 mph87%29.53 "HgN/A
9:50 AM36 °FPartly sunny.6 mph87%29.56 "HgN/A
9:20 AM34 °FBroken clouds.6 mph93%29.56 "HgN/A
8:50 AM32 °FPartly sunny.6 mph100%29.59 "HgN/A
8:20 AM32 °FPartly sunny.5 mph93%29.59 "Hg6 mi
7:50 AM32 °FBroken clouds.3 mph93%29.62 "Hg5 mi
7:20 AM32 °FMostly cloudy.9 mph100%29.62 "Hg4 mi
6:20 AM34 °FFog.9 mph93%29.65 "Hg3 mi
5:50 AM34 °FFog.7 mph93%29.65 "Hg3 mi
5:20 AM34 °FFog.5 mph100%29.65 "Hg3 mi
4:50 AM34 °FFog.6 mph100%29.65 "Hg3 mi
4:20 AM34 °FFog.6 mph100%29.65 "Hg3 mi
3:50 AM34 °FFog.5 mph100%29.68 "Hg3 mi
3:20 AM34 °FPassing clouds.3 mph100%29.68 "Hg3 mi
2:50 AM34 °FPassing clouds.1 mph93%29.68 "Hg1 mi
2:20 AM34 °FPassing clouds.1 mph93%29.68 "Hg1 mi
1:50 AM32 °FPartly cloudy.1 mph93%29.68 "Hg0 mi
1:20 AM32 °FPassing clouds.1 mph100%29.68 "Hg0 mi
12:50 AM34 °FPartly cloudy.3 mph93%29.68 "Hg3 mi
12:20 AM34 °FLow clouds.5 mph93%29.71 "Hg3 mi
11:50 PM
Thu, Feb 11
34 °FLow clouds.3 mph100%29.71 "Hg4 mi
10:50 PM36 °FPassing clouds.3 mph93%29.71 "Hg6 mi
10:20 PM36 °FPassing clouds.5 mph93%29.71 "HgN/A
9:50 PM36 °FPassing clouds.5 mph93%29.71 "HgN/A
9:20 PM36 °FLight rain. Partly cloudy.3 mph93%29.71 "HgN/A
8:50 PM36 °FPartly cloudy.6 mph93%29.71 "HgN/A
8:20 PM36 °FPassing clouds.5 mph93%29.71 "HgN/A
7:50 PM36 °FPassing clouds.2 mph93%29.71 "HgN/A
7:20 PM36 °FPartly cloudy.2 mph93%29.71 "HgN/A
6:50 PM36 °FPartly cloudy.2 mph93%29.71 "HgN/A
6:20 PM36 °FPartly cloudy.2 mph93%29.71 "HgN/A
5:50 PM36 °FSprinkles. Partly cloudy.3 mph93%29.71 "HgN/A
5:20 PM37 °FSprinkles. Partly sunny.8 mph87%29.71 "Hg6 mi
4:50 PM37 °FBroken clouds.3 mph93%29.71 "HgN/A
4:20 PM37 °FSprinkles. Broken clouds.5 mph93%29.71 "HgN/A
3:50 PM37 °FBroken clouds.7 mph93%29.71 "HgN/A
3:20 PM37 °FPartly sunny.7 mph93%29.71 "HgN/A
2:50 PM37 °FPartly sunny.9 mph93%29.71 "HgN/A
2:20 PM36 °FPartly sunny.9 mph93%29.71 "HgN/A
1:50 PM36 °FPartly sunny.10 mph93%29.71 "HgN/A
1:20 PM36 °FPartly sunny.12 mph93%29.74 "HgN/A
12:50 PM36 °FPartly sunny.10 mph93%29.74 "Hg5 mi
12:20 PM36 °FPartly sunny.13 mph93%29.74 "Hg6 mi
11:50 AM36 °FPartly sunny.10 mph93%29.74 "HgN/A
11:20 AM36 °FPartly sunny.8 mph93%29.74 "HgN/A
Weather by CustomWeather, © 2016

See weather overviewHow to use our weather pages